Estación de San José

Ultimos registro cada 15 minutos 70
Estación Fecha / Hora Temperatura Humedad Lluvia Velocidad Dirección Radiación Presion
70 San José 04-05-2026 17:30 16 78 0 0 145 42 1016,7
69 San José 04-05-2026 17:15 16 78 0 0 145 42 1016,7
68 San José 04-05-2026 17:00 16,1 77 0 0 145 51 1016,6
67 San José 04-05-2026 16:45 16,1 78 0 0 145 63 1016,8
66 San José 04-05-2026 16:30 16,3 78 0 0 145 60 1016,8
65 San José 04-05-2026 16:15 16,6 75 0 0 145 56 1017
64 San José 04-05-2026 16:00 16,8 76 0 0 145 54 1017,1
63 San José 04-05-2026 15:45 16,9 72 0 0 145 58 1017,2
62 San José 04-05-2026 15:30 17 72 0 0 145 72 1017,5
61 San José 04-05-2026 15:15 17,1 70 0 0 145 104 1017,6
60 San José 04-05-2026 15:00 17,3 67 0 0 145 134 1017,5
59 San José 04-05-2026 14:45 17,6 65 0 0 145 146 1017,8
58 San José 04-05-2026 14:30 17,7 64 0 0 145 156 1018,1
57 San José 04-05-2026 14:15 17,6 66 0 0 145 197 1018,2
56 San José 04-05-2026 14:00 17,5 64 0 0 145 204 1018,3
55 San José 04-05-2026 13:45 17,1 67 0 0 145 230 1018,9
54 San José 04-05-2026 13:30 16,7 69 0 0 145 279 1019,1
53 San José 04-05-2026 13:15 16,2 74 0 0 145 271 1019,1
52 San José 04-05-2026 13:00 15,8 73 0 0 134 204 1019,2
51 San José 04-05-2026 12:45 15,7 72 0 0 122 181 1019,1
50 San José 04-05-2026 12:30 15,6 73 0 0 143 174 1019,5
49 San José 04-05-2026 12:15 15,2 76 0 0 130 146 1019,8
48 San José 04-05-2026 12:00 14,9 77 0 0 130 148 1019,6
47 San José 04-05-2026 11:45 14,8 76 0 0 130 144 1019,4
46 San José 04-05-2026 11:30 14,3 77 0 0 129 146 1019,3
45 San José 04-05-2026 11:15 13,8 78 0 0 129 156 1019,6
44 San José 04-05-2026 11:00 13,2 81 0 0 130 174 1019,6
43 San José 04-05-2026 10:45 12,8 82 0 0 130 116 1019,6
42 San José 04-05-2026 10:30 12,1 84 0 0 130 95 1019,4
41 San José 04-05-2026 10:15 12,1 84 0 0 130 95 1019,4
40 San José 04-05-2026 10:00 11,8 86 0 0 130 72 1019,4
39 San José 04-05-2026 09:45 11,4 86 0 0 130 84 1019,3
38 San José 04-05-2026 09:15 10,3 89 0 0 130 104 1019,3
37 San José 04-05-2026 09:00 9,8 91 0 0 130 63 1019,1
36 San José 04-05-2026 08:45 9,4 92 0 0 130 63 1018,8
35 San José 04-05-2026 08:30 9,1 92 0 0 130 49 1018,7
34 San José 04-05-2026 08:15 8,8 91 0 0 131 37 1018,9
33 San José 04-05-2026 08:00 8,6 91 0 0 130 25 1018,7
32 San José 04-05-2026 07:45 8,4 89 0 0 130 12 1018,5
31 San José 04-05-2026 07:30 7,9 89 0 0 130 0 1018,5
30 San José 04-05-2026 07:15 7,9 89 0 0 130 0 1018,5
29 San José 04-05-2026 07:00 8,1 88 0 0 130 0 1018,5
28 San José 04-05-2026 06:45 7,8 89 0 0 130 0 1018,6
27 San José 04-05-2026 06:30 7,8 90 0 0 130 0 1018,5
26 San José 04-05-2026 06:15 8,1 89 0 0 131 0 1018,3
25 San José 04-05-2026 06:00 8,6 88 0 0 130 0 1018,3
24 San José 04-05-2026 05:45 8,9 88 0 0 130 0 1018,2
23 San José 04-05-2026 05:30 9,3 87 0 0 130 0 1018,2
22 San José 04-05-2026 05:15 9,4 87 0 0 130 0 1018,5
21 San José 04-05-2026 05:00 9,6 87 0 0 130 0 1018,4
20 San José 04-05-2026 04:45 9,8 86 0 0 130 0 1018,1
19 San José 04-05-2026 04:30 9,7 86 0 0 130 0 1018,2
18 San José 04-05-2026 04:15 9,7 87 0 0 130 0 1018,2
17 San José 04-05-2026 04:00 9,4 89 0 0 130 0 1018,2
16 San José 04-05-2026 03:45 9,6 90 0 0 130 0 1018,2
15 San José 04-05-2026 03:30 9,6 90 0 0 130 0 1018,4
14 San José 04-05-2026 03:15 9,8 88 0 0 130 0 1018,6
13 San José 04-05-2026 03:00 10 88 0 0 130 0 1018,8
12 San José 04-05-2026 02:45 10,2 86 0 0 130 0 1019
11 San José 04-05-2026 02:30 10,2 87 0 0 130 0 1019,1
10 San José 04-05-2026 02:15 10 89 0 0 130 0 1019,3
9 San José 04-05-2026 02:00 10,1 88 0 0 130 0 1019,3
8 San José 04-05-2026 01:45 10,2 88 0 0 130 0 1019,4
7 San José 04-05-2026 01:30 10,3 87 0 0 130 0 1019,4
6 San José 04-05-2026 01:15 10,6 86 0 0 130 0 1019,2
5 San José 04-05-2026 01:00 10,8 84 0 0 130 0 1019,2
4 San José 04-05-2026 00:45 10,9 84 0 0 130 0 1019,6
3 San José 04-05-2026 00:30 10,9 84 0 0 130 0 1019,6
2 San José 04-05-2026 00:15 10,7 85 0 0 130 0 1019,8
1 San José 04-05-2026 00:00 10,7 87 0 0 130 0 1020,1